Time,TemperatureF,DewpointF,PressureIn,WindDirection,WindDirectionDegrees,WindSpeedMPH,WindSpeedGustMPH,Humidity,HourlyPrecipIn,Conditions,Clouds,dailyrainin,SoftwareType,DateUTC
2013-02-26 00:06:00,24.4,21.0,30.15,WNW,299,0.0,0.0,85,0.00,,,0.00,weatherlink.com 1.10,2013-02-26 05:06:00,
2013-02-26 00:21:00,24.0,20.0,30.16,WNW,299,0.0,0.0,86,0.00,,,0.00,weatherlink.com 1.10,2013-02-26 05:21:00,
2013-02-26 00:36:00,24.1,20.0,30.15,WNW,299,0.0,0.0,85,0.00,,,0.00,weatherlink.com 1.10,2013-02-26 05:36:00,
2013-02-26 00:51:00,23.6,20.0,30.15,WNW,299,0.0,0.0,86,0.00,,,0.00,weatherlink.com 1.10,2013-02-26 05:51:00,
2013-02-26 01:06:00,23.1,20.0,30.16,WNW,299,0.0,0.0,87,0.00,,,0.00,weatherlink.com 1.10,2013-02-26 06:06:00,
2013-02-26 01:21:00,22.8,20.0,30.16,WNW,299,0.0,0.0,88,0.00,,,0.00,weatherlink.com 1.10,2013-02-26 06:21:00,
2013-02-26 01:36:00,22.6,20.0,30.17,WNW,299,0.0,0.0,88,0.00,,,0.00,weatherlink.com 1.10,2013-02-26 06:36:00,
2013-02-26 01:51:00,22.4,20.0,30.18,WNW,299,0.0,0.0,89,0.00,,,0.00,weatherlink.com 1.10,2013-02-26 06:51:00,
2013-02-26 02:06:00,22.4,20.0,30.17,WNW,299,0.0,0.0,89,0.00,,,0.00,weatherlink.com 1.10,2013-02-26 07:06:00,
2013-02-26 02:21:00,22.4,20.0,30.16,WNW,299,0.0,0.0,89,0.00,,,0.00,weatherlink.com 1.10,2013-02-26 07:21:00,
2013-02-26 02:36:00,22.5,20.0,30.15,WNW,299,0.0,0.0,90,0.00,,,0.00,weatherlink.com 1.10,2013-02-26 07:36:00,
2013-02-26 02:51:00,22.9,20.0,30.14,WNW,299,0.0,0.0,89,0.00,,,0.00,weatherlink.com 1.10,2013-02-26 07:51:00,
2013-02-26 03:06:00,22.9,20.0,30.14,WNW,299,0.0,0.0,89,0.00,,,0.00,weatherlink.com 1.10,2013-02-26 08:06:00,
2013-02-26 03:21:00,23.0,21.0,30.13,WNW,299,0.0,0.0,90,0.00,,,0.00,weatherlink.com 1.10,2013-02-26 08:21:00,
2013-02-26 03:36:00,23.3,21.0,30.13,WNW,299,0.0,0.0,89,0.00,,,0.00,weatherlink.com 1.10,2013-02-26 08:36:00,
2013-02-26 03:51:00,23.2,21.0,30.13,WNW,299,0.0,0.0,89,0.00,,,0.00,weatherlink.com 1.10,2013-02-26 08:51:00,
2013-02-26 04:06:00,23.1,21.0,30.12,WNW,299,0.0,0.0,90,0.00,,,0.00,weatherlink.com 1.10,2013-02-26 09:06:00,
2013-02-26 04:21:00,23.3,21.0,30.10,WNW,299,0.0,0.0,90,0.00,,,0.00,weatherlink.com 1.10,2013-02-26 09:21:00,
2013-02-26 04:36:00,23.4,21.0,30.11,WNW,299,0.0,0.0,90,0.00,,,0.00,weatherlink.com 1.10,2013-02-26 09:36:00,
2013-02-26 04:51:00,24.2,22.0,30.13,WNW,299,0.0,0.0,90,0.00,,,0.00,weatherlink.com 1.10,2013-02-26 09:51:00,
2013-02-26 05:06:00,24.6,22.0,30.12,WNW,299,0.0,0.0,89,0.00,,,0.00,weatherlink.com 1.10,2013-02-26 10:06:00,
2013-02-26 05:21:00,24.8,22.0,30.12,WNW,299,0.0,0.0,88,0.00,,,0.00,weatherlink.com 1.10,2013-02-26 10:21:00,
2013-02-26 05:36:00,24.9,22.0,30.13,WNW,299,0.0,0.0,88,0.00,,,0.00,weatherlink.com 1.10,2013-02-26 10:36:00,
2013-02-26 05:51:00,25.2,22.0,30.13,WNW,299,0.0,0.0,89,0.00,,,0.00,weatherlink.com 1.10,2013-02-26 10:51:00,
2013-02-26 06:06:00,25.3,22.0,30.12,WNW,299,0.0,0.0,88,0.00,,,0.00,weatherlink.com 1.10,2013-02-26 11:06:00,
2013-02-26 06:21:00,25.6,23.0,30.13,WNW,299,0.0,0.0,88,0.00,,,0.00,weatherlink.com 1.10,2013-02-26 11:21:00,
2013-02-26 06:36:00,25.8,23.0,30.13,WNW,299,0.0,0.0,89,0.00,,,0.00,weatherlink.com 1.10,2013-02-26 11:36:00,
2013-02-26 06:51:00,25.9,23.0,30.12,NNW,327,1.0,1.0,88,0.00,,,0.00,weatherlink.com 1.10,2013-02-26 11:51:00,
2013-02-26 07:06:00,26.1,23.0,30.11,North,358,0.0,1.0,88,0.00,,,0.00,weatherlink.com 1.10,2013-02-26 12:06:00,
2013-02-26 07:21:00,26.2,23.0,30.12,North,358,0.0,2.0,89,0.00,,,0.00,weatherlink.com 1.10,2013-02-26 12:21:00,
2013-02-26 07:36:00,26.7,24.0,30.13,North,358,0.0,0.0,89,0.00,,,0.00,weatherlink.com 1.10,2013-02-26 12:36:00,
2013-02-26 07:51:00,27.5,24.0,30.12,ENE,61,0.0,2.0,88,0.00,,,0.00,weatherlink.com 1.10,2013-02-26 12:51:00,
2013-02-26 08:06:00,28.6,26.0,30.12,ENE,62,0.0,1.0,88,0.00,,,0.00,weatherlink.com 1.10,2013-02-26 13:06:00,
2013-02-26 08:21:00,29.9,26.0,30.13,ENE,60,0.0,2.0,85,0.00,,,0.00,weatherlink.com 1.10,2013-02-26 13:21:00,
2013-02-26 08:37:00,31.0,26.0,30.14,ENE,60,0.0,1.0,82,0.00,,,0.00,weatherlink.com 1.10,2013-02-26 13:37:00,
2013-02-26 08:52:00,32.1,27.0,30.12,ENE,70,1.0,2.0,81,0.00,,,0.00,weatherlink.com 1.10,2013-02-26 13:52:00,
2013-02-26 09:07:00,33.3,27.0,30.13,NE,44,2.0,3.0,79,0.00,,,0.00,weatherlink.com 1.10,2013-02-26 14:07:00,
2013-02-26 09:22:00,34.2,28.0,30.13,ENE,77,0.0,3.0,78,0.00,,,0.00,weatherlink.com 1.10,2013-02-26 14:22:00,
2013-02-26 09:37:00,35.1,28.0,30.12,ENE,70,2.0,5.0,75,0.00,,,0.00,weatherlink.com 1.10,2013-02-26 14:37:00,
2013-02-26 09:52:00,35.7,28.0,30.12,East,79,4.0,7.0,74,0.00,,,0.00,weatherlink.com 1.10,2013-02-26 14:52:00,
2013-02-26 10:07:00,36.0,28.0,30.11,NE,44,1.0,7.0,72,0.00,,,0.00,weatherlink.com 1.10,2013-02-26 15:07:00,
2013-02-26 10:22:00,36.2,28.0,30.10,NE,35,3.0,6.0,72,0.00,,,0.00,weatherlink.com 1.10,2013-02-26 15:22:00,
2013-02-26 10:37:00,36.3,28.0,30.10,ENE,64,7.0,7.0,71,0.00,,,0.00,weatherlink.com 1.10,2013-02-26 15:37:00,
2013-02-26 10:52:00,36.6,28.0,30.10,ESE,112,4.0,9.0,71,0.00,,,0.00,weatherlink.com 1.10,2013-02-26 15:52:00,
2013-02-26 11:07:00,36.8,28.0,30.10,East,84,3.0,9.0,70,0.00,,,0.00,weatherlink.com 1.10,2013-02-26 16:07:00,
2013-02-26 11:22:00,36.6,29.0,30.09,East,100,1.0,8.0,74,0.00,,,0.00,weatherlink.com 1.10,2013-02-26 16:22:00,
2013-02-26 11:37:00,35.7,30.0,30.09,NE,42,4.0,7.0,81,0.01,,,0.01,weatherlink.com 1.10,2013-02-26 16:37:00,
2013-02-26 11:52:00,35.2,31.0,30.08,ENE,66,0.0,4.0,84,0.01,,,0.01,weatherlink.com 1.10,2013-02-26 16:52:00,
2013-02-26 12:07:00,35.2,32.0,30.08,ENE,69,2.0,4.0,87,0.02,,,0.02,weatherlink.com 1.10,2013-02-26 17:07:00,
2013-02-26 12:22:00,35.1,32.0,30.07,NNE,31,0.0,4.0,88,0.04,,,0.04,weatherlink.com 1.10,2013-02-26 17:22:00,
2013-02-26 12:37:00,35.0,32.0,30.05,NNE,31,1.0,3.0,88,0.04,,,0.05,weatherlink.com 1.10,2013-02-26 17:37:00,
2013-02-26 12:52:00,34.8,32.0,30.03,NE,36,1.0,3.0,89,0.06,,,0.07,weatherlink.com 1.10,2013-02-26 17:52:00,
2013-02-26 13:07:00,34.8,33.0,30.01,NE,39,1.0,5.0,91,0.05,,,0.08,weatherlink.com 1.10,2013-02-26 18:07:00,
2013-02-26 13:22:00,34.8,33.0,30.00,NE,44,2.0,4.0,92,0.05,,,0.09,weatherlink.com 1.10,2013-02-26 18:22:00,
2013-02-26 13:37:00,34.7,33.0,29.99,NE,37,4.0,4.0,92,0.05,,,0.11,weatherlink.com 1.10,2013-02-26 18:37:00,
2013-02-26 13:53:00,34.6,33.0,29.98,NNE,26,0.0,4.0,93,0.06,,,0.13,weatherlink.com 1.10,2013-02-26 18:53:00,
2013-02-26 14:08:00,34.8,33.0,29.96,NNE,17,5.0,6.0,93,0.06,,,0.14,weatherlink.com 1.10,2013-02-26 19:08:00,
2013-02-26 14:23:00,35.2,33.0,29.94,ENE,66,1.0,8.0,93,0.05,,,0.15,weatherlink.com 1.10,2013-02-26 19:23:00,
2013-02-26 14:38:00,35.4,34.0,29.92,NNE,33,4.0,9.0,93,0.03,,,0.15,weatherlink.com 1.10,2013-02-26 19:38:00,
2013-02-26 14:53:00,35.7,34.0,29.92,ENE,63,3.0,8.0,93,0.03,,,0.16,weatherlink.com 1.10,2013-02-26 19:53:00,
2013-02-26 15:08:00,36.3,35.0,29.90,East,99,1.0,8.0,93,0.02,,,0.16,weatherlink.com 1.10,2013-02-26 20:08:00,
2013-02-26 15:23:00,36.6,35.0,29.89,East,95,4.0,7.0,93,0.01,,,0.16,weatherlink.com 1.10,2013-02-26 20:23:00,
2013-02-26 15:38:00,36.8,35.0,29.89,South,175,0.0,6.0,94,0.01,,,0.16,weatherlink.com 1.10,2013-02-26 20:38:00,
2013-02-26 15:53:00,37.0,36.0,29.87,East,79,6.0,6.0,94,0.01,,,0.17,weatherlink.com 1.10,2013-02-26 20:53:00,
2013-02-26 16:08:00,37.7,36.0,29.85,NNE,29,1.0,7.0,95,0.03,,,0.19,weatherlink.com 1.10,2013-02-26 21:08:00,
2013-02-26 16:23:00,38.0,37.0,29.84,NNE,29,2.0,9.0,95,0.04,,,0.20,weatherlink.com 1.10,2013-02-26 21:23:00,
2013-02-26 16:38:00,38.1,37.0,29.82,North,1,1.0,7.0,95,0.06,,,0.22,weatherlink.com 1.10,2013-02-26 21:38:00,
2013-02-26 16:53:00,38.4,37.0,29.80,NE,49,1.0,6.0,95,0.06,,,0.23,weatherlink.com 1.10,2013-02-26 21:53:00,
2013-02-26 17:08:00,38.5,37.0,29.78,ENE,66,4.0,9.0,95,0.05,,,0.24,weatherlink.com 1.10,2013-02-26 22:08:00,
2013-02-26 17:23:00,38.7,38.0,29.78,ENE,68,3.0,6.0,96,0.05,,,0.25,weatherlink.com 1.10,2013-02-26 22:23:00,
2013-02-26 17:38:00,39.5,39.0,29.77,NE,35,5.0,9.0,96,0.05,,,0.27,weatherlink.com 1.10,2013-02-26 22:38:00,
2013-02-26 17:53:00,39.9,39.0,29.75,East,98,6.0,11.0,95,0.06,,,0.29,weatherlink.com 1.10,2013-02-26 22:53:00,
2013-02-26 18:09:00,39.9,39.0,29.73,NNE,33,6.0,12.0,95,0.08,,,0.32,weatherlink.com 1.10,2013-02-26 23:09:00,
2013-02-26 18:23:00,39.9,39.0,29.74,ENE,66,7.0,11.0,95,0.10,,,0.35,weatherlink.com 1.10,2013-02-26 23:23:00,
2013-02-26 18:38:00,40.0,39.0,29.74,ENE,58,3.0,9.0,95,0.10,,,0.37,weatherlink.com 1.10,2013-02-26 23:38:00,
2013-02-26 18:54:00,40.0,39.0,29.71,ESE,109,2.0,11.0,95,0.11,,,0.40,weatherlink.com 1.10,2013-02-26 23:54:00,
2013-02-26 19:09:00,40.1,39.0,29.71,ENE,64,2.0,10.0,95,0.13,,,0.44,weatherlink.com 1.10,2013-02-27 00:09:00,
2013-02-26 19:24:00,40.2,39.0,29.72,ESE,102,6.0,8.0,95,0.10,,,0.46,weatherlink.com 1.10,2013-02-27 00:24:00,
2013-02-26 19:39:00,40.2,39.0,29.74,SSE,147,1.0,13.0,95,0.12,,,0.50,weatherlink.com 1.10,2013-02-27 00:39:00,
2013-02-26 19:54:00,40.4,39.0,29.75,ENE,73,0.0,8.0,95,0.13,,,0.53,weatherlink.com 1.10,2013-02-27 00:54:00,
2013-02-26 20:09:00,40.3,39.0,29.75,NNE,32,0.0,3.0,95,0.12,,,0.56,weatherlink.com 1.10,2013-02-27 01:09:00,
2013-02-26 20:24:00,40.1,39.0,29.75,NW,320,1.0,2.0,96,0.15,,,0.61,weatherlink.com 1.10,2013-02-27 01:24:00,
2013-02-26 20:39:00,39.9,39.0,29.73,North,360,1.0,4.0,96,0.14,,,0.64,weatherlink.com 1.10,2013-02-27 01:39:00,
2013-02-26 20:54:00,39.7,39.0,29.72,NE,38,4.0,5.0,96,0.12,,,0.65,weatherlink.com 1.10,2013-02-27 01:54:00,
2013-02-26 21:09:00,39.6,39.0,29.71,North,9,4.0,5.0,96,0.09,,,0.66,weatherlink.com 1.10,2013-02-27 02:09:00,
2013-02-26 21:39:00,39.6,39.0,29.68,NE,51,3.0,10.0,96,0.03,,,0.67,weatherlink.com 1.10,2013-02-27 02:39:00,
2013-02-26 21:54:00,39.7,39.0,29.67,NE,38,3.0,13.0,97,0.02,,,0.67,weatherlink.com 1.10,2013-02-27 02:54:00,
2013-02-26 22:09:00,39.8,39.0,29.68,NNE,23,0.0,8.0,97,0.01,,,0.67,weatherlink.com 1.10,2013-02-27 03:09:00,
2013-02-26 22:24:00,39.8,39.0,29.66,NNE,13,2.0,10.0,96,0.01,,,0.68,weatherlink.com 1.10,2013-02-27 03:24:00,
2013-02-26 22:39:00,39.7,39.0,29.64,NE,56,5.0,9.0,96,0.01,,,0.68,weatherlink.com 1.10,2013-02-27 03:39:00,
2013-02-26 22:54:00,39.5,39.0,29.64,NE,34,5.0,6.0,96,0.02,,,0.69,weatherlink.com 1.10,2013-02-27 03:54:00,
2013-02-26 23:09:00,39.2,38.0,29.63,NNE,23,0.0,7.0,96,0.02,,,0.69,weatherlink.com 1.10,2013-02-27 04:09:00,
2013-02-26 23:24:00,38.9,38.0,29.62,NE,41,3.0,6.0,96,0.01,,,0.69,weatherlink.com 1.10,2013-02-27 04:24:00,
2013-02-26 23:39:00,38.7,38.0,29.63,North,355,1.0,6.0,96,0.01,,,0.69,weatherlink.com 1.10,2013-02-27 04:39:00,
2013-02-26 23:54:00,38.3,37.0,29.61,North,360,2.0,7.0,96,0.01,,,0.70,weatherlink.com 1.10,2013-02-27 04:54:00,